PLEIADES 1B

Last updated on Fri Jul 10 2026 00:02:49 GMT+0000 (Coordinated Universal Time)

1 39019U 12068A 26190.30633025 .00000014 00000+0 12915-4 0 9995 2 39019 98.1936 265.0533 0001649 82.4713 277.6674 14.58532040724070
UTC large
Height (km)
Speed (km/s)
/
Latitude / Longitude
Inclination (degrees)
Orbital Period (minutes)
Azimuth
Elevation
Range (km)
Doppler Factor

Next 0 passes for location: London (51.5072 / 0.1276)

No passes found over London.
PLEIADES 1B